Regional Weather Roundup
Issued by NWS

Home | Current Version | Previous Version | Text Only | Print | Product List | Glossary Off
Versions: 1 2 3 4 5 6 7 8 9 10 11 12 13 14 15 16 17 18 19 20 21 22 23 24 25 26 27 28 29 30 31 32 33 34 35 36 37 38 39 40 41 42 43 44 45 46 47 48 49 50

614
ASUS45 KCYS 071210
RWRWY

WYOMING REGIONAL WEATHER ROUNDUP
NATIONAL WEATHER SERVICE CHEYENNE WY
500 AM MST SUN FEB 07 2016

NOTE:  "FAIR" INDICATES FEW OR NO CLOUDS BELOW 12,000 FEET
WITH NO SIGNIFICANT WEATHER AND/OR OBSTRUCTIONS TO VISIBILITY.

WYZ001-071300-
YELLOWSTONE NATIONAL PARK

CITY           SKY/WX    TMP DP  RH WIND       PRES   REMARKS
LK YELLOWSTONE   N/A      6   2  83 CALM      30.34R
6HR MIN TEMP:   5; 6HR MAX TEMP:  21;

W YELLOWSTONE  NOT AVBL

$$
WYZ002>013-054>058-071-098>099-071300-
NORTHERN WYOMING

CITY           SKY/WX    TMP DP  RH WIND       PRES   REMARKS
JACKSON        CLOUDY    30  23  74 S15       30.36R WCI  19
CODY           FAIR      25  18  74 E5        30.27R WCI  19
GREYBULL       CLOUDY    35  13  40 NW14      30.26R WCI  26
6HR MIN TEMP:  26; 6HR MAX TEMP:  37;

WORLAND        MOCLDY    25  17  72 S6        30.28R WCI  18
6HR MIN TEMP:  23; 6HR MAX TEMP:  31;

SHERIDAN       CLOUDY    34  14  44 NW20      30.23S WCI  22
6HR MIN TEMP:  33; 6HR MAX TEMP:  37; 6HR PCP: TRACE;

BUFFALO        CLOUDY    32  12  43 NW29G53   30.21R WCI  18
6HR MIN TEMP:  31; 6HR MAX TEMP:  34; 6HR PCP:  0.01;

GILLETTE       CLOUDY    30  16  56 NW21G30   30.18R WCI  17
6HR MIN TEMP:  30; 6HR MAX TEMP:  34;

HULETT         PTSUNNY   32  12  43 NW15G26   30.14R WCI  22
NEWCASTLE      FAIR      32  10  40 NW25G35   30.13R WCI  19

$$
WYZ014>020-022>026-101>103-071300-
CENTRAL WYOMING

CITY           SKY/WX    TMP DP  RH WIND       PRES   REMARKS
BIG PINEY      FAIR      27  18  69 N17       30.34R WCI  14
6HR MIN TEMP:  18; 6HR MAX TEMP:  27;

PINEDALE       FAIR      21  18  86 NW14      30.32R WCI   8
DUBOIS         FAIR      28  14  54 W26       30.22S WCI  13
LANDER         FAIR      24  12  60 E3        30.24R
6HR MIN TEMP:  21; 6HR MAX TEMP:  34;

RIVERTON       FAIR      27  13  55 NE9       30.25R WCI  18
6HR MIN TEMP:  26; 6HR MAX TEMP:  37;

CASPER         FAIR       8   3  80 W3        30.24R
6HR MIN TEMP:   7; 6HR MAX TEMP:  28;

DOUGLAS        CLOUDY    28  21  75 NW15        N/A  WCI  16
6HR MIN TEMP:  25; 6HR MAX TEMP:  30;


$$
WYZ021-027>030-104>119-071300-
SOUTHERN WYOMING

CITY           SKY/WX    TMP DP  RH WIND       PRES   REMARKS
EVANSTON       FAIR      24  13  62 W24       30.40S WCI   8
6HR MIN TEMP:  22; 6HR MAX TEMP:  28;

FORT BRIDGER   MOSUNNY   25  18  74 W13       30.43R WCI  13
ROCK SPRINGS   FAIR      25  16  68 W20       30.35R WCI  11
6HR MIN TEMP:  24; 6HR MAX TEMP:  28;

DIXON          FAIR       7   3  82 CALM      30.38R
RAWLINS        FAIR      23  15  71 SW26G33   30.26R WCI   6
6HR MIN TEMP:  22; 6HR MAX TEMP:  27;

SARATOGA       FAIR      25  19  80 W31G39    30.24R HAZE    WCI   8
LARAMIE        FAIR      24  16  71 W22       30.15R WCI   9
6HR MIN TEMP:  24; 6HR MAX TEMP:  30;

CHEYENNE       FAIR      31  17  56 NW10      30.15R WCI  22
6HR MIN TEMP:  31; 6HR MAX TEMP:  37;

TORRINGTON     CLOUDY    31  21  66 NW9       30.20R WCI  23
6HR MIN TEMP:  27; 6HR MAX TEMP:  34;

PINE BLUFFS    FAIR      21  16  79 N8        30.18R WCI  12

$$




USA.gov is the U.S. government's official web portal to all federal, state and local government web resources and services.